Indianapolis, IN

4:01 AM EDT on May 30, 2017 (GMT -0400)
Indianapolis International

Weather History for KIND - April, 2014

Change the Weather History Date:

Sunday, April 27, 2014

  Actual Average Record
Temperature  
Mean Temperature 60 °F 57 °F  
Max Temperature 72 °F 67 °F 84 °F (1962)
Min Temperature 47 °F 47 °F 30 °F (1976)
Degree Days  
Heating Degree Days 5 9  
Month to date heating degree days 334 346  
Since 1 July heating degree days 6030 5196  
Cooling Degree Days 0 1  
Month to date cooling degree days 4 10  
Year to date cooling degree days 4 12  
Growing Degree Days 9 (Base 50)    
Moisture  
Dew Point 41 °F    
Average Humidity 52    
Maximum Humidity 65    
Minimum Humidity 38    
Precipitation  
Precipitation T in 0.13 in 1.56 in (2002)
Month to date precipitation 4.63 3.39  
Year to date precipitation 11.80 11.93  
Snow  
Snow 0.00 in 0.00 in T in (1932)
Month to date snowfall 0.3 0.2  
Since 1 July snowfall 55.7 25.9  
Snow Depth 0.00 in    
Sea Level Pressure  
Sea Level Pressure 29.89 in    
Wind  
Wind Speed 15 mph (East)    
Max Wind Speed 22 mph    
Max Gust Speed 29 mph    
Visibility 10 miles    
Events      
T = Trace of Precipitation, MM = Missing Value Source: NWS Daily Summary

Daily Weather History Graph

Daily Weather History Graph

Search for Another Location

Airport or City:

Trip Planner

Search our weather history database for the weather conditions in past years. The results will help you decide how hot, cold, wet, or windy it might be!

Date:

Astronomy

Apr. 27, 2014 Rise Set
Actual Time 6:50 AM EDT 8:35 PM EDT
Civil Twilight 6:22 AM EDT 9:04 PM EDT
Nautical Twilight 5:47 AM EDT 9:39 PM EDT
Astronomical Twilight 5:09 AM EDT 10:16 PM EDT
Moon 5:50 AM EDT (4/27) 7:08 PM EDT (4/27)
Length of Visible Light 14h 42m
Length of Day
13h 44m
Waning Crescent, 3% of the Moon is Illuminated
Apr 27
Waning Crescent
Apr 29
New
May 6
First Quarter
May 14
Full
May 21
Last Quarter

Hourly Weather History & Observations

Time (EDT) Temp. Dew Point Humidity Pressure Visibility Wind Dir Wind Speed Gust Speed Precip Events Conditions
12:54 AM 57.9 °F 37.0 °F 46% 29.94 in 10.0 mi ENE 11.5 mph - N/A   Mostly Cloudy
1:54 AM 57.0 °F 37.0 °F 47% 29.93 in 10.0 mi East 11.5 mph - N/A   Mostly Cloudy
2:54 AM 55.0 °F 37.0 °F 51% 29.92 in 10.0 mi East 12.7 mph - N/A   Mostly Cloudy
3:54 AM 53.1 °F 39.0 °F 59% 29.94 in 10.0 mi ENE 12.7 mph - N/A   Mostly Cloudy
4:54 AM 51.1 °F 37.0 °F 59% 29.95 in 10.0 mi East 13.8 mph - N/A   Mostly Cloudy
5:54 AM 48.9 °F 36.0 °F 61% 29.97 in 10.0 mi ENE 12.7 mph - N/A   Scattered Clouds
6:54 AM 48.0 °F 36.0 °F 63% 29.97 in 10.0 mi East 17.3 mph - N/A   Overcast
7:54 AM 46.9 °F 36.0 °F 66% 30.01 in 10.0 mi ENE 16.1 mph - N/A   Overcast
8:54 AM 48.0 °F 36.0 °F 63% 30.00 in 10.0 mi East 17.3 mph 24.2 mph N/A   Mostly Cloudy
9:54 AM 50.0 °F 36.0 °F 59% 29.97 in 10.0 mi East 20.7 mph - N/A   Mostly Cloudy
10:54 AM 54.0 °F 39.0 °F 57% 29.96 in 10.0 mi East 15.0 mph - N/A   Mostly Cloudy
11:54 AM 59.0 °F 41.0 °F 51% 29.93 in 10.0 mi ESE 18.4 mph - N/A   Mostly Cloudy
12:54 PM 64.0 °F 43.0 °F 46% 29.89 in 10.0 mi East 16.1 mph - N/A   Mostly Cloudy
1:54 PM 69.1 °F 45.0 °F 42% 29.88 in 10.0 mi ESE 15.0 mph - N/A   Overcast
2:54 PM 71.1 °F 45.0 °F 39% 29.86 in 10.0 mi ESE 16.1 mph 23.0 mph N/A   Overcast
3:54 PM 71.6 °F 44.6 °F 38% 29.83 in 10.0 mi East 17.3 mph 25.3 mph N/A   Overcast
4:54 PM 72.0 °F 46.0 °F 40% 29.81 in 10.0 mi East 18.4 mph - N/A   Overcast
5:54 PM 71.1 °F 46.0 °F 41% 29.82 in 10.0 mi ESE 15.0 mph - N/A   Overcast
6:54 PM 71.1 °F 46.9 °F 42% 29.81 in 10.0 mi East 11.5 mph - N/A   Overcast
7:54 PM 69.1 °F 46.0 °F 44% 29.83 in 10.0 mi East 9.2 mph - N/A   Overcast
8:54 PM 66.9 °F 45.0 °F 45% 29.83 in 10.0 mi East 13.8 mph - N/A   Overcast
9:54 PM 66.0 °F 44.1 °F 45% 29.83 in 10.0 mi East 12.7 mph - N/A   Overcast
10:54 PM 64.0 °F 42.1 °F 45% 29.78 in 10.0 mi East 18.4 mph - N/A   Overcast
11:54 PM 63.0 °F 42.1 °F 46% 29.82 in 10.0 mi East 18.4 mph - N/A   Overcast